Ionia, MI

9:36 PM EDT on June 25, 2017 (GMT -0400)
Ionia

Weather History for KY70 - June, 2013

Change the Weather History Date:

Tuesday, June 25, 2013

  Actual Average (KGRR) Record (KGRR)
Temperature  
Mean Temperature 73 °F -  
Max Temperature 79 °F 80 °F 97 °F (1988)
Min Temperature 67 °F 57 °F 41 °F (1986)
Cooling Degree Days 8    
Growing Degree Days 23 (Base 50)    
Moisture  
Dew Point 67 °F    
Average Humidity 85    
Maximum Humidity 97    
Minimum Humidity 73    
Precipitation  
Precipitation 0.44 in - - ()
Sea Level Pressure  
Sea Level Pressure 29.90 in    
Wind  
Wind Speed 8 mph (WSW)    
Max Wind Speed 15 mph    
Max Gust Speed 21 mph    
Visibility 9 miles    
Events Rain    
Averages and records for this station are not official NWS values.
T = Trace of Precipitation, MM = Missing Value Source: NWS Daily Summary

Daily Weather History Graph

Daily Weather History Graph

Search for Another Location

Airport or City:

Trip Planner

Search our weather history database for the weather conditions in past years. The results will help you decide how hot, cold, wet, or windy it might be!

Date:

Astronomy

Jun. 25, 2013 Rise Set
Actual Time 6:02 AM EDT 9:23 PM EDT
Civil Twilight 5:27 AM EDT 9:58 PM EDT
Nautical Twilight 4:41 AM EDT 10:44 PM EDT
Astronomical Twilight 3:44 AM EDT 11:41 PM EDT
Moon 11:02 PM EDT (6/25) 8:45 AM EDT (6/25)
Length of Visible Light 16h 31m
Length of Day
15h 20m
Waning Gibbous, 93% of the Moon is Illuminated
Jun 25
Waning Gibbous
Jun 30
Last Quarter
Jul 8
New
Jul 15
First Quarter
Jul 22
Full

Hourly Weather History & Observations

Time (EDT) Temp. Dew Point Humidity Pressure Visibility Wind Dir Wind Speed Gust Speed Precip Events Conditions
12:14 AM 71.8 °F 69.8 °F 93% 29.93 in 10.0 mi WSW 15.0 mph 19.6 mph N/A   Overcast
12:34 AM 72.0 °F 68.0 °F 87% 29.92 in 10.0 mi WNW 9.2 mph 19.6 mph N/A   Scattered Clouds
12:54 AM 71.1 °F 66.9 °F 87% 29.92 in 10.0 mi West 10.4 mph - N/A   Clear
1:14 AM 70.7 °F 65.1 °F 82% 29.92 in 10.0 mi West 13.8 mph - N/A   Scattered Clouds
1:34 AM 69.8 °F 64.8 °F 84% 29.92 in 10.0 mi WSW 6.9 mph - N/A   Clear
1:54 AM 69.4 °F 64.8 °F 85% 29.92 in 10.0 mi WSW 8.1 mph - N/A   Clear
2:14 AM 68.9 °F 64.9 °F 87% 29.92 in 10.0 mi WSW 6.9 mph - N/A   Scattered Clouds
2:34 AM 68.9 °F 64.9 °F 87% 29.92 in 10.0 mi WSW 6.9 mph - N/A   Scattered Clouds
2:54 AM 68.5 °F 64.8 °F 88% 29.92 in 10.0 mi WSW 6.9 mph - N/A   Light Drizzle
3:14 AM 68.4 °F 64.6 °F 88% 29.92 in 10.0 mi WSW 8.1 mph - N/A   Scattered Clouds
3:34 AM 68.4 °F 64.8 °F 88% 29.92 in 10.0 mi SW 5.8 mph - N/A   Clear
3:54 AM 68.4 °F 64.8 °F 88% 29.92 in 10.0 mi WSW 6.9 mph - N/A   Clear
4:14 AM 68.2 °F 64.9 °F 89% 29.92 in 10.0 mi WSW 9.2 mph - N/A   Scattered Clouds
4:34 AM 68.2 °F 64.9 °F 89% 29.91 in 10.0 mi WSW 6.9 mph - N/A   Scattered Clouds
4:54 AM 68.2 °F 64.9 °F 89% 29.91 in 10.0 mi WSW 6.9 mph - N/A   Scattered Clouds
5:14 AM 68.0 °F 64.8 °F 89% 29.91 in 10.0 mi SW 9.2 mph - N/A   Scattered Clouds
5:34 AM 68.0 °F 64.8 °F 89% 29.92 in 10.0 mi WSW 5.8 mph - N/A   Mostly Cloudy
5:54 AM 67.6 °F 64.8 °F 90% 29.94 in 10.0 mi WSW 8.1 mph - N/A   Mostly Cloudy
6:14 AM 68.2 °F 64.8 °F 89% 29.96 in 10.0 mi WSW 11.5 mph - N/A   Overcast
6:34 AM 68.0 °F 65.3 °F 91% 29.97 in 10.0 mi WSW 13.8 mph 20.7 mph 0.01 in Rain Rain
6:54 AM 67.1 °F 65.5 °F 95% 29.95 in 5.0 mi West 6.9 mph - 0.09 in Rain Rain
7:14 AM 67.1 °F 65.5 °F 95% 29.92 in 5.0 mi South 3.5 mph - 0.03 in Rain Rain
7:34 AM 67.1 °F 66.0 °F 96% 29.97 in 7.0 mi WSW 9.2 mph - 0.04 in Rain Light Rain
7:54 AM 67.1 °F 66.2 °F 97% 29.97 in 5.0 mi WSW 8.1 mph - 0.05 in Rain Light Rain
8:14 AM 67.1 °F 66.2 °F 97% 29.97 in 5.0 mi WSW 10.4 mph - 0.01 in Rain Rain
8:34 AM 67.1 °F 66.2 °F 97% 29.95 in 5.0 mi SW 9.2 mph - 0.04 in Rain Rain
8:54 AM 67.3 °F 66.2 °F 96% 29.94 in 7.0 mi SSW 10.4 mph - 0.06 in Rain Light Rain
9:14 AM 67.6 °F 66.4 °F 96% 29.91 in 10.0 mi South 10.4 mph - 0.01 in Rain Light Rain
9:34 AM 68.0 °F 66.4 °F 95% 29.89 in 10.0 mi South 8.1 mph - 0.01 in   Scattered Clouds
9:54 AM 68.5 °F 66.4 °F 93% 29.90 in 10.0 mi SSW 9.2 mph - 0.01 in   Clear
10:14 AM 69.6 °F 67.1 °F 92% 29.89 in 10.0 mi SW 9.2 mph - N/A   Clear
10:34 AM 71.1 °F 67.8 °F 89% 29.91 in 10.0 mi West 8.1 mph - N/A   Clear
10:54 AM 72.5 °F 68.2 °F 86% 29.91 in 10.0 mi West 12.7 mph - N/A   Mostly Cloudy
11:14 AM 72.5 °F 68.0 °F 86% 29.92 in 10.0 mi WSW 9.2 mph - N/A   Overcast
11:34 AM 73.8 °F 68.4 °F 83% 29.92 in 10.0 mi WSW 11.5 mph - N/A   Overcast
11:54 AM 73.0 °F 67.5 °F 83% 29.93 in 10.0 mi SW 10.4 mph - N/A   Overcast
12:14 PM 72.5 °F 67.5 °F 84% 29.94 in 10.0 mi WSW 5.8 mph - N/A   Overcast
12:34 PM 71.2 °F 68.2 °F 90% 29.96 in 4.0 mi NW 10.4 mph 16.1 mph 0.05 in Rain Rain
12:54 PM 69.3 °F 67.6 °F 95% 29.96 in 5.0 mi WNW 6.9 mph 18.4 mph 0.23 in Rain Light Rain
1:14 PM 70.7 °F 68.9 °F 94% 29.93 in 10.0 mi SW 4.6 mph - N/A   Scattered Clouds
1:34 PM 71.4 °F 67.6 °F 88% 29.89 in 10.0 mi SE 3.5 mph - N/A   Scattered Clouds
1:54 PM 72.5 °F 67.5 °F 84% 29.89 in 10.0 mi SW 4.6 mph - N/A   Clear
2:14 PM 73.0 °F 66.6 °F 80% 29.88 in 10.0 mi WSW 3.5 mph - N/A   Scattered Clouds
2:34 PM 73.9 °F 67.6 °F 81% 29.88 in 10.0 mi North 3.5 mph - N/A   Scattered Clouds
2:54 PM 75.2 °F 68.9 °F 81% 29.87 in 10.0 mi Calm Calm - N/A   Scattered Clouds
3:14 PM 74.7 °F 67.5 °F 78% 29.87 in 10.0 mi Calm Calm - N/A   Mostly Cloudy
3:34 PM 76.1 °F 68.2 °F 76% 29.88 in 10.0 mi Calm Calm - N/A   Overcast
3:54 PM 76.3 °F 69.1 °F 78% 29.90 in 10.0 mi NW 4.6 mph - N/A   Overcast
4:14 PM 78.3 °F 69.4 °F 74% 29.89 in 10.0 mi Calm Calm - N/A   Mostly Cloudy
4:34 PM 78.8 °F 69.8 °F 74% 29.88 in 10.0 mi NW 6.9 mph - N/A   Scattered Clouds
4:54 PM 78.1 °F 69.8 °F 76% 29.87 in 10.0 mi NW 4.6 mph - N/A   Mostly Cloudy
5:14 PM 79.0 °F 70.0 °F 74% 29.88 in 10.0 mi NNW 9.2 mph - N/A   Overcast
5:34 PM 78.6 °F 70.0 °F 75% 29.88 in 10.0 mi NNW 8.1 mph - N/A   Mostly Cloudy
5:54 PM 77.4 °F 69.3 °F 76% 29.87 in 10.0 mi NNW 6.9 mph - N/A   Overcast
6:14 PM 77.2 °F 69.1 °F 76% 29.87 in 10.0 mi NNW 5.8 mph - N/A   Overcast
6:34 PM 77.4 °F 68.2 °F 73% 29.86 in 10.0 mi NW 4.6 mph - N/A   Overcast
6:54 PM 77.2 °F 68.5 °F 75% 29.86 in 10.0 mi North 5.8 mph - N/A   Mostly Cloudy
7:14 PM 76.5 °F 68.4 °F 76% 29.85 in 10.0 mi NNW 4.6 mph - N/A   Mostly Cloudy
7:34 PM 76.6 °F 67.5 °F 73% 29.85 in 10.0 mi Calm Calm - N/A   Mostly Cloudy
7:54 PM 75.6 °F 68.4 °F 78% 29.84 in 10.0 mi Calm Calm - N/A   Scattered Clouds
8:14 PM 75.4 °F 69.1 °F 81% 29.83 in 10.0 mi Calm Calm - N/A   Scattered Clouds
8:34 PM 76.6 °F 67.6 °F 74% 29.83 in 10.0 mi Calm Calm - N/A   Clear
8:54 PM 75.6 °F 67.5 °F 76% 29.84 in 10.0 mi Calm Calm - N/A   Clear
9:14 PM 75.4 °F 68.4 °F 79% 29.85 in 10.0 mi Calm Calm - N/A   Clear
9:34 PM 75.2 °F 68.4 °F 79% 29.84 in 10.0 mi Calm Calm - N/A   Clear
9:54 PM 72.9 °F 68.7 °F 87% 29.85 in 10.0 mi Calm Calm - N/A   Clear
10:14 PM 73.2 °F 68.7 °F 86% 29.84 in 10.0 mi Calm Calm - N/A   Clear
10:34 PM 71.4 °F 68.7 °F 91% 29.85 in 10.0 mi South 4.6 mph - N/A   Clear
10:54 PM 73.6 °F 68.9 °F 85% 29.86 in 10.0 mi South 6.9 mph - N/A   Clear
11:14 PM 73.0 °F 68.4 °F 85% 29.86 in 10.0 mi South 6.9 mph - N/A   Clear
11:34 PM 73.0 °F 69.3 °F 88% 29.85 in 10.0 mi South 4.6 mph - N/A   Clear
11:54 PM 73.6 °F 69.8 °F 88% 29.85 in 10.0 mi South 8.1 mph - N/A   Clear